Regional Weather Roundup
Issued by NWS

Home | Current Version | Previous Version | Graphics & Text | Print | Product List | Glossary On
Versions: 1 2 3 4 5 6 7 8 9 10 11 12 13 14 15 16 17 18 19 20 21 22 23 24 25 26 27 28 29 30 31 32 33 34 35 36 37 38 39 40 41 42 43 44 45 46 47 48 49 50
709
ASUS43 KFSD 030002
RWRSD

WEATHER ROUNDUP FOR SOUTH DAKOTA
NATIONAL WEATHER SERVICE SIOUX FALLS SD
700 PM CDT MON MAY 02 2016

NOTE: "FAIR" INDICATES FEW OR NO CLOUDS BELOW 12,000 FEET WITH NO
SIGNIFICANT WEATHER AND/OR OBSTRUCTIONS TO VISIBILITY.


SDZ001>005-009-010-012>017-030100-
NORTHWEST AND NORTH CENTRAL SOUTH DAKOTA

CITY           SKY/WX    TMP DP  RH WIND       PRES   REMARKS
BUFFALO          N/A     69  30  23 N25G36    29.92R
FAITH            N/A     55  45  68 S13       29.96R
MOBRIDGE       SUNNY     64  42  44 NE3       29.94S
$$

SDZ012>016-024>037-041>051-057-063-072>074-030100-
SOUTHWEST AND SOUTH CENTRAL SOUTH DAKOTA

CITY           SKY/WX    TMP DP  RH WIND       PRES   REMARKS
RAPID CTY ARPT LGT RAIN  56  43  61 N12       29.98F
PIERRE         CLOUDY    56  42  59 W14       29.97F
CUSTER         CLOUDY    54  26  34 N13G24    30.06S
ELLSWORTH AFB  LGT RAIN  59  38  45 N15G37    29.97
PHILIP         LGT RAIN  51  44  77 SE8       30.01S
PINE RIDGE     PTSUNNY   61  33  35 N13G21    30.01S
WINNER         FAIR      57  46  66 E8        30.00F
$$

SDZ004>011-016>023-039-040-030100-
NORTHEAST SOUTH DAKOTA

CITY           SKY/WX    TMP DP  RH WIND       PRES   REMARKS
ABERDEEN       SUNNY     61  39  44 W3        29.99S
WATERTOWN      SUNNY     60  33  36 S6        29.98S
BROOKINGS      SUNNY     62  32  32 SW6       29.99F
SISSETON         N/A     64  32  30 N5        29.96R
$$

SDZ017-020-022-023-036>040-048>070-030100-
SOUTHEAST SOUTH DAKOTA

CITY           SKY/WX    TMP DP  RH WIND       PRES   REMARKS
SIOUX FALLS    PTSUNNY   61  37  41 CALM      30.01F
HURON          CLOUDY    58  45  62 W9        29.99S
MITCHELL       PTSUNNY   62  40  44 S6        30.00S
YANKTON        MOSUNNY   61  36  39 S3        30.02S
$$

ABBREVIATIONS USED IN REMARKS
   TC - TEMPERATURE IN CELSIUS
  WCI - WIND CHILL INDEX
   HX - HEAT INDEX
  VSB - VISIBILITY





USA.gov is the U.S. government's official web portal to all federal, state and local government web resources and services.